| time (UTC) | temp F | wind direction | speed MPH | gust MPH | rain 1hr in | rain 24hr in | rain mn in | humidity % | barometer mb |
| 20260507212808 | 42 | 125 | 4.0 | 6.0 | 0.00 | 0.00 | 0.00 | 73 | 1006.8 |
| 20260507212307 | 42 | 88 | 4.0 | 6.0 | 0.00 | 0.00 | 0.00 | 74 | 1006.9 |
| 20260507211801 | 42 | 138 | 4.0 | 6.0 | 0.00 | 0.00 | 0.00 | 72 | 1007.2 |
| 20260507211257 | 42 | 124 | 3.0 | 5.0 | 0.00 | 0.00 | 0.00 | 73 | 1007.1 |
| 20260507210754 | 42 | 152 | 3.0 | 3.0 | 0.00 | 0.00 | 0.00 | 75 | 1006.9 |
| 20260507210251 | 42 | 135 | 5.0 | 8.0 | 0.00 | 0.00 | 0.00 | 74 | 1007.1 |
| 20260507205748 | 42 | 123 | 4.0 | 6.0 | 0.00 | 0.00 | 0.00 | 74 | 1007.0 |
| 20260507205245 | 42 | 123 | 2.0 | 7.0 | 0.00 | 0.00 | 0.00 | 75 | 1007.1 |
| 20260507204741 | 42 | 128 | 6.0 | 9.0 | 0.00 | 0.00 | 0.00 | 71 | 1007.2 |
| 20260507204239 | 42 | 106 | 2.0 | 3.0 | 0.00 | 0.00 | 0.00 | 72 | 1007.0 |
| 20260507203736 | 42 | 155 | 5.0 | 6.0 | 0.00 | 0.00 | 0.00 | 72 | 1007.2 |
| 20260507203233 | 42 | 121 | 3.0 | 7.0 | 0.00 | 0.00 | 0.00 | 72 | 1007.1 |
| 20260507202730 | 42 | 145 | 3.0 | 6.0 | 0.00 | 0.00 | 0.00 | 70 | 1007.3 |
| 20260507202226 | 42 | 148 | 5.0 | 5.0 | 0.00 | 0.00 | 0.00 | 71 | 1007.0 |
| 20260507201721 | 42 | 133 | 5.0 | 6.0 | 0.00 | 0.00 | 0.00 | 71 | 1007.0 |
| 20260507201218 | 43 | 135 | 3.0 | 8.0 | 0.00 | 0.00 | 0.00 | 72 | 1007.3 |
| 20260507200714 | 43 | 94 | 6.0 | 7.0 | 0.00 | 0.00 | 0.00 | 72 | 1007.2 |
| 20260507200210 | 43 | 137 | 7.0 | 8.0 | 0.00 | 0.00 | 0.00 | 72 | 1007.3 |
| 20260507195707 | 43 | 114 | 3.0 | 6.0 | 0.00 | 0.00 | 0.00 | 72 | 1007.1 |
| 20260507195204 | 43 | 128 | 4.0 | 5.0 | 0.00 | 0.00 | 0.00 | 72 | 1007.2 |
| 20260507194701 | 42 | 109 | 3.0 | 5.0 | 0.00 | 0.00 | 0.00 | 75 | 1007.3 |
| 20260507194156 | 42 | 96 | 4.0 | 8.0 | 0.00 | 0.00 | 0.00 | 74 | 1007.4 |
| 20260507193653 | 43 | 60 | 4.0 | 7.0 | 0.00 | 0.00 | 0.00 | 74 | 1007.4 |
| 20260507193151 | 42 | 79 | 3.0 | 5.0 | 0.00 | 0.00 | 0.00 | 75 | 1007.2 |
| 20260507192646 | 42 | 108 | 7.0 | 10.0 | 0.00 | 0.00 | 0.00 | 73 | 1007.2 |
| 20260507192144 | 43 | 87 | 4.0 | 6.0 | 0.00 | 0.00 | 0.00 | 75 | 1007.3 |
| 20260507191639 | 42 | 141 | 4.0 | 7.0 | 0.00 | 0.00 | 0.00 | 76 | 1007.4 |
| 20260507191136 | 42 | 149 | 5.0 | 8.0 | 0.00 | 0.00 | 0.00 | 75 | 1007.5 |
| 20260507190633 | 42 | 147 | 9.0 | 10.0 | 0.00 | 0.00 | 0.00 | 75 | 1007.3 |
| 20260507190132 | 43 | 119 | 5.0 | 13.0 | 0.00 | 0.00 | 0.00 | 77 | 1007.3 |
| 20260507185630 | 43 | 105 | 7.0 | 9.0 | 0.00 | 0.00 | 0.00 | 75 | 1007.4 |
| 20260507185126 | 44 | 169 | 3.0 | 8.0 | 0.00 | 0.00 | 0.00 | 73 | 1007.2 |
| 20260507184624 | 44 | 92 | 5.0 | 9.0 | 0.00 | 0.00 | 0.00 | 71 | 1007.5 |
| 20260507184122 | 44 | 59 | 3.0 | 6.0 | 0.00 | 0.00 | 0.00 | 71 | 1007.4 |
| 20260507183618 | 44 | 146 | 5.0 | 8.0 | 0.00 | 0.00 | 0.00 | 71 | 1007.2 |
| 20260507183115 | 44 | 84 | 5.0 | 8.0 | 0.00 | 0.00 | 0.00 | 69 | 1007.5 |
| 20260507182612 | 46 | 129 | 0.0 | 7.0 | 0.00 | 0.00 | 0.00 | 64 | 1007.6 |
| 20260507182108 | 46 | 205 | 2.0 | 2.0 | 0.00 | 0.00 | 0.00 | 61 | 1007.6 |
| 20260507181605 | 46 | 268 | 3.0 | 3.0 | 0.00 | 0.00 | 0.00 | 63 | 1007.4 |
| 20260507181101 | 45 | 250 | 1.0 | 2.0 | 0.00 | 0.00 | 0.00 | 63 | 1007.5 |
| 20260507180558 | 45 | 328 | 5.0 | 6.0 | 0.00 | 0.00 | 0.00 | 62 | 1007.6 |
| 20260507180054 | 45 | 270 | 6.0 | 7.0 | 0.00 | 0.00 | 0.00 | 64 | 1007.7 |
| 20260507175550 | 45 | 349 | 5.0 | 9.0 | 0.00 | 0.00 | 0.00 | 64 | 1007.8 |
| 20260507175048 | 45 | 300 | 14.0 | 17.0 | 0.00 | 0.00 | 0.00 | 66 | 1007.7 |
| 20260507174545 | 45 | 290 | 4.0 | 9.0 | 0.00 | 0.00 | 0.00 | 65 | 1007.7 |
| 20260507174043 | 45 | 275 | 9.0 | 14.0 | 0.00 | 0.00 | 0.00 | 64 | 1007.7 |
| 20260507173540 | 45 | 312 | 5.0 | 10.0 | 0.00 | 0.00 | 0.00 | 61 | 1007.5 |
| 20260507173037 | 46 | 331 | 2.0 | 9.0 | 0.00 | 0.00 | 0.00 | 62 | 1007.8 |
| 20260507172532 | 45 | 243 | 8.0 | 8.0 | 0.00 | 0.00 | 0.00 | 60 | 1007.7 |
| 20260507172029 | 46 | 312 | 6.0 | 17.0 | 0.00 | 0.00 | 0.00 | 59 | 1007.8 |
| 20260507171525 | 46 | 288 | 4.0 | 8.0 | 0.00 | 0.00 | 0.00 | 59 | 1007.8 |
| 20260507171023 | 46 | 270 | 11.0 | 13.0 | 0.00 | 0.00 | 0.00 | 58 | 1007.8 |
| 20260507170519 | 46 | 258 | 7.0 | 10.0 | 0.00 | 0.00 | 0.00 | 59 | 1007.8 |
| 20260507170016 | 46 | 256 | 9.0 | 10.0 | 0.00 | 0.00 | 0.00 | 60 | 1008.1 |
| 20260507165512 | 46 | 244 | 3.0 | 5.0 | 0.00 | 0.00 | 0.00 | 59 | 1007.9 |
| 20260507165008 | 46 | 320 | 5.0 | 6.0 | 0.00 | 0.00 | 0.00 | 61 | 1007.9 |
| 20260507164505 | 46 | 333 | 5.0 | 8.0 | 0.00 | 0.00 | 0.00 | 60 | 1008.0 |
| 20260507164002 | 46 | 282 | 8.0 | 10.0 | 0.00 | 0.00 | 0.00 | 61 | 1008.4 |
| 20260507163459 | 46 | 283 | 6.0 | 10.0 | 0.00 | 0.00 | 0.00 | 60 | 1008.3 |
| 20260507162956 | 46 | 318 | 8.0 | 10.0 | 0.00 | 0.00 | 0.00 | 61 | 1008.2 |
| 20260507162451 | 45 | 259 | 5.0 | 8.0 | 0.00 | 0.00 | 0.00 | 61 | 1008.2 |
| 20260507161948 | 45 | 330 | 7.0 | 13.0 | 0.00 | 0.00 | 0.00 | 61 | 1008.2 |
| 20260507161444 | 45 | 332 | 5.0 | 7.0 | 0.00 | 0.00 | 0.00 | 60 | 1008.3 |
| 20260507160942 | 45 | 274 | 7.0 | 8.0 | 0.00 | 0.00 | 0.00 | 63 | 1008.3 |
| 20260507160437 | 45 | 257 | 9.0 | 11.0 | 0.00 | 0.00 | 0.00 | 59 | 1008.1 |
| 20260507155933 | 46 | 326 | 6.0 | 8.0 | 0.00 | 0.00 | 0.00 | 61 | 1008.3 |
| 20260507155430 | 46 | 337 | 8.0 | 9.0 | 0.00 | 0.00 | 0.00 | 60 | 1008.1 |
| 20260507154927 | 45 | 304 | 3.0 | 5.0 | 0.00 | 0.00 | 0.00 | 62 | 1008.3 |
| 20260507154423 | 45 | 300 | 6.0 | 8.0 | 0.00 | 0.00 | 0.00 | 62 | 1008.2 |
| 20260507153921 | 45 | 320 | 6.0 | 13.0 | 0.00 | 0.00 | 0.00 | 63 | 1008.3 |
| 20260507153417 | 45 | 331 | 4.0 | 8.0 | 0.00 | 0.00 | 0.00 | 63 | 1008.2 |
| 20260507152914 | 45 | 246 | 2.0 | 3.0 | 0.00 | 0.00 | 0.00 | 64 | 1008.2 |
| 20260507152410 | 45 | 200 | 6.0 | 7.0 | 0.00 | 0.00 | 0.00 | 62 | 1008.0 |
| 20260507151906 | 45 | 269 | 6.0 | 10.0 | 0.00 | 0.00 | 0.00 | 62 | 1008.2 |
| 20260507151402 | 46 | 261 | 7.0 | 9.0 | 0.00 | 0.00 | 0.00 | 62 | 1008.2 |
| 20260507150859 | 45 | 281 | 7.0 | 9.0 | 0.00 | 0.00 | 0.00 | 62 | 1008.2 |
| 20260507150356 | 45 | 321 | 8.0 | 10.0 | 0.00 | 0.00 | 0.00 | 63 | 1008.3 |
| 20260507145852 | 46 | 323 | 4.0 | 11.0 | 0.00 | 0.00 | 0.00 | 64 | 1008.3 |
| 20260507145348 | 45 | 281 | 7.0 | 13.0 | 0.00 | 0.00 | 0.00 | 63 | 1008.3 |
| 20260507144846 | 45 | 236 | 8.0 | 10.0 | 0.00 | 0.00 | 0.00 | 62 | 1008.4 |
| 20260507144343 | 44 | 301 | 7.0 | 20.0 | 0.00 | 0.00 | 0.00 | 63 | 1008.3 |
| 20260507143840 | 44 | 275 | 10.0 | 17.0 | 0.00 | 0.00 | 0.00 | 63 | 1008.2 |
| 20260507143337 | 44 | 290 | 6.0 | 10.0 | 0.00 | 0.00 | 0.00 | 64 | 1008.4 |
| 20260507142833 | 45 | 299 | 8.0 | 10.0 | 0.00 | 0.00 | 0.00 | 64 | 1008.4 |
| 20260507142330 | 44 | 272 | 3.0 | 8.0 | 0.00 | 0.00 | 0.00 | 64 | 1008.2 |
| 20260507141826 | 44 | 300 | 7.0 | 16.0 | 0.00 | 0.00 | 0.00 | 65 | 1008.2 |
| 20260507141323 | 44 | 248 | 7.0 | 22.0 | 0.00 | 0.00 | 0.00 | 65 | 1008.6 |
| 20260507140820 | 43 | 287 | 7.0 | 8.0 | 0.00 | 0.00 | 0.00 | 67 | 1008.4 |
| 20260507140316 | 43 | 244 | 7.0 | 9.0 | 0.00 | 0.00 | 0.00 | 67 | 1008.6 |
| 20260507135815 | 43 | 271 | 4.0 | 8.0 | 0.00 | 0.00 | 0.00 | 67 | 1008.6 |
| 20260507135311 | 43 | 245 | 6.0 | 8.0 | 0.00 | 0.00 | 0.00 | 68 | 1008.7 |
| 20260507134808 | 43 | 45 | 1.0 | 7.0 | 0.00 | 0.00 | 0.00 | 67 | 1008.5 |
| 20260507134304 | 43 | 243 | 3.0 | 3.0 | 0.00 | 0.00 | 0.00 | 68 | 1008.5 |
| 20260507133800 | 43 | 266 | 2.0 | 5.0 | 0.00 | 0.00 | 0.00 | 71 | 1008.7 |
| 20260507133256 | 43 | 295 | 7.0 | 10.0 | 0.00 | 0.00 | 0.00 | 67 | 1008.8 |
| 20260507132754 | 43 | 205 | 3.0 | 5.0 | 0.00 | 0.00 | 0.00 | 67 | 1008.8 |
| 20260507132251 | 42 | 350 | 5.0 | 6.0 | 0.00 | 0.00 | 0.00 | 69 | 1008.7 |
| 20260507131748 | 42 | 281 | 4.0 | 5.0 | 0.00 | 0.00 | 0.00 | 70 | 1008.8 |
| 20260507131245 | 42 | 273 | 5.0 | 9.0 | 0.00 | 0.00 | 0.00 | 68 | 1008.6 |
| 20260507130741 | 42 | 240 | 7.0 | 8.0 | 0.00 | 0.00 | 0.00 | 70 | 1008.6 |
| 20260507130239 | 42 | 318 | 5.0 | 6.0 | 0.00 | 0.00 | 0.00 | 69 | 1008.6 |
| 20260507125738 | 42 | 266 | 3.0 | 6.0 | 0.00 | 0.00 | 0.00 | 73 | 1008.4 |
| 20260507125235 | 41 | 275 | 4.0 | 6.0 | 0.00 | 0.00 | 0.00 | 72 | 1008.4 |
| 20260507124731 | 41 | 317 | 2.0 | 3.0 | 0.00 | 0.00 | 0.00 | 72 | 1008.6 |
| 20260507124228 | 41 | 245 | 2.0 | 3.0 | 0.00 | 0.00 | 0.00 | 71 | 1008.6 |
| 20260507123727 | 41 | 223 | 2.0 | 3.0 | 0.00 | 0.00 | 0.00 | 72 | 1008.4 |
| 20260507123224 | 42 | 199 | 1.0 | 5.0 | 0.00 | 0.00 | 0.00 | 73 | 1008.4 |
| 20260507122719 | 42 | 275 | 3.0 | 3.0 | 0.00 | 0.00 | 0.00 | 73 | 1008.4 |
| 20260507122215 | 41 | 236 | 2.0 | 3.0 | 0.00 | 0.00 | 0.00 | 75 | 1008.5 |
| 20260507121711 | 40 | 318 | 3.0 | 5.0 | 0.00 | 0.00 | 0.00 | 76 | 1008.4 |
| 20260507121207 | 40 | 241 | 2.0 | 3.0 | 0.00 | 0.00 | 0.00 | 75 | 1008.5 |
| 20260507120703 | 40 | 323 | 4.0 | 5.0 | 0.00 | 0.00 | 0.00 | 76 | 1008.5 |
| 20260507120200 | 39 | 246 | 3.0 | 3.0 | 0.00 | 0.00 | 0.00 | 77 | 1008.4 |
| 20260507115656 | 38 | 300 | 1.0 | 3.0 | 0.00 | 0.00 | 0.00 | 80 | 1008.3 |
| 20260507115152 | 38 | 266 | 3.0 | 3.0 | 0.00 | 0.00 | 0.00 | 79 | 1008.5 |
| 20260507114648 | 38 | 259 | 2.0 | 2.0 | 0.00 | 0.00 | 0.00 | 79 | 1008.4 |
| 20260507114146 | 37 | 277 | 3.0 | 3.0 | 0.00 | 0.00 | 0.00 | 80 | 1008.4 |
| 20260507113643 | 37 | 295 | 2.0 | 2.0 | 0.00 | 0.00 | 0.00 | 84 | 1008.4 |
| 20260507113140 | 36 | 147 | 1.0 | 1.0 | 0.00 | 0.00 | 0.00 | 86 | 1008.3 |
| 20260507112638 | 35 | 150 | 1.0 | 1.0 | 0.00 | 0.00 | 0.00 | 87 | 1008.4 |
| 20260507112134 | 34 | 160 | 1.0 | 1.0 | 0.00 | 0.00 | 0.00 | 88 | 1008.3 |
| 20260507111631 | 33 | 161 | 0.0 | 1.0 | 0.00 | 0.00 | 0.00 | 94 | 1008.3 |
| 20260507111128 | 33 | 149 | 1.0 | 2.0 | 0.00 | 0.00 | 0.00 | 98 | 1008.3 |
| 20260507110624 | 31 | 138 | 1.0 | 1.0 | 0.00 | 0.00 | 0.00 | 99 | 1008.1 |
| 20260507110121 | 30 | 110 | 0.0 | 1.0 | 0.00 | 0.00 | 0.00 | 99 | 1008.2 |
| 20260507105618 | 30 | 113 | 0.0 | 0.0 | 0.00 | 0.00 | 0.00 | 99 | 1008.4 |
| 20260507105114 | 30 | 113 | 0.0 | 0.0 | 0.00 | 0.00 | 0.00 | 99 | 1008.1 |
| 20260507104611 | 30 | 121 | 0.0 | 0.0 | 0.00 | 0.00 | 0.00 | 99 | 1008.0 |
| 20260507104108 | 30 | 124 | 1.0 | 1.0 | 0.00 | 0.00 | 0.00 | 99 | 1008.1 |
| 20260507103604 | 30 | 118 | 0.0 | 0.0 | 0.00 | 0.00 | 0.00 | 99 | 1008.1 |
| 20260507103101 | 30 | 125 | 0.0 | 1.0 | 0.00 | 0.00 | 0.00 | 99 | 1008.0 |
| 20260507102557 | 30 | 123 | 1.0 | 1.0 | 0.00 | 0.00 | 0.00 | 99 | 1008.1 |
| 20260507102053 | 30 | 120 | 1.0 | 1.0 | 0.00 | 0.00 | 0.00 | 99 | 1008.1 |
| 20260507101548 | 30 | 101 | 0.0 | 0.0 | 0.00 | 0.00 | 0.00 | 99 | 1007.9 |
| 20260507101045 | 30 | 93 | 1.0 | 1.0 | 0.00 | 0.00 | 0.00 | 98 | 1007.9 |
| 20260507100543 | 30 | 102 | 0.0 | 0.0 | 0.00 | 0.00 | 0.00 | 98 | 1008.1 |
| 20260507100041 | 31 | 102 | 0.0 | 1.0 | 0.00 | 0.00 | 0.00 | 98 | 1008.0 |
| 20260507095538 | 30 | 96 | 0.0 | 0.0 | 0.00 | 0.00 | 0.00 | 96 | 1008.0 |
| 20260507095035 | 30 | 94 | 0.0 | 1.0 | 0.00 | 0.00 | 0.00 | 96 | 1007.9 |
| 20260507094531 | 30 | 86 | 0.0 | 1.0 | 0.00 | 0.00 | 0.00 | 96 | 1008.0 |
| 20260507094028 | 30 | 78 | 0.0 | 0.0 | 0.00 | 0.00 | 0.00 | 96 | 1007.9 |
| 20260507093526 | 30 | 78 | 0.0 | 0.0 | 0.00 | 0.00 | 0.00 | 95 | 1008.0 |
| 20260507093024 | 30 | 78 | 0.0 | 0.0 | 0.00 | 0.00 | 0.00 | 95 | 1008.1 |
| 20260507092520 | 31 | 78 | 0.0 | 0.0 | 0.00 | 0.00 | 0.00 | 95 | 1007.9 |
| 20260507092017 | 31 | 78 | 0.0 | 0.0 | 0.00 | 0.00 | 0.00 | 94 | 1008.2 |
| 20260507091514 | 31 | 76 | 0.0 | 0.0 | 0.00 | 0.00 | 0.00 | 94 | 1008.2 |
| 20260507091010 | 31 | 68 | 0.0 | 0.0 | 0.00 | 0.00 | 0.00 | 94 | 1008.4 |
| 20260507090506 | 31 | 54 | 0.0 | 1.0 | 0.00 | 0.00 | 0.00 | 94 | 1008.1 |
| 20260507090003 | 31 | 13 | 0.0 | 0.0 | 0.00 | 0.00 | 0.00 | 94 | 1008.1 |
| 20260507085500 | 31 | 345 | 0.0 | 0.0 | 0.00 | 0.00 | 0.00 | 94 | 1008.3 |
| 20260507084956 | 31 | 336 | 0.0 | 0.0 | 0.00 | 0.00 | 0.00 | 94 | 1008.2 |
| 20260507084453 | 32 | 330 | 0.0 | 0.0 | 0.00 | 0.00 | 0.00 | 94 | 1008.3 |
| 20260507083950 | 32 | 320 | 1.0 | 1.0 | 0.00 | 0.00 | 0.00 | 96 | 1008.4 |
| 20260507083446 | 33 | 320 | 0.0 | 0.0 | 0.00 | 0.00 | 0.00 | 95 | 1008.3 |
| 20260507082943 | 33 | 319 | 0.0 | 1.0 | 0.00 | 0.00 | 0.00 | 93 | 1008.1 |
| 20260507082439 | 34 | 320 | 1.0 | 1.0 | 0.00 | 0.00 | 0.00 | 91 | 1008.2 |
| 20260507081936 | 35 | 320 | 1.0 | 1.0 | 0.00 | 0.00 | 0.00 | 88 | 1008.3 |
| 20260507081432 | 35 | 316 | 1.0 | 1.0 | 0.00 | 0.00 | 0.00 | 88 | 1008.3 |
| 20260507080929 | 35 | 301 | 1.0 | 2.0 | 0.00 | 0.00 | 0.00 | 87 | 1008.3 |
| 20260507080425 | 35 | 293 | 1.0 | 2.0 | 0.00 | 0.00 | 0.00 | 86 | 1008.4 |
| 20260507075920 | 35 | 297 | 2.0 | 2.0 | 0.00 | 0.00 | 0.00 | 86 | 1008.2 |
| 20260507075417 | 35 | 287 | 2.0 | 2.0 | 0.00 | 0.00 | 0.00 | 85 | 1008.4 |
| 20260507074914 | 35 | 267 | 2.0 | 2.0 | 0.00 | 0.00 | 0.00 | 87 | 1008.4 |
| 20260507074410 | 35 | 266 | 2.0 | 3.0 | 0.00 | 0.00 | 0.00 | 86 | 1008.6 |
| 20260507073908 | 35 | 259 | 1.0 | 2.0 | 0.00 | 0.00 | 0.00 | 87 | 1008.5 |
| 20260507073404 | 35 | 159 | 1.0 | 1.0 | 0.00 | 0.00 | 0.00 | 88 | 1008.3 |
| 20260507072902 | 35 | 146 | 1.0 | 1.0 | 0.00 | 0.00 | 0.00 | 88 | 1008.5 |
| 20260507072359 | 35 | 147 | 0.0 | 1.0 | 0.00 | 0.00 | 0.00 | 85 | 1008.4 |
| 20260507071856 | 35 | 150 | 0.0 | 1.0 | 0.00 | 0.00 | 0.00 | 85 | 1008.5 |
| 20260507071353 | 35 | 156 | 0.0 | 1.0 | 0.00 | 0.00 | 0.00 | 86 | 1008.5 |
| 20260507070849 | 35 | 164 | 1.0 | 1.0 | 0.00 | 0.00 | 0.00 | 86 | 1008.4 |
| 20260507070347 | 35 | 191 | 0.0 | 1.0 | 0.00 | 0.00 | 0.00 | 86 | 1008.8 |
| 20260507065844 | 36 | 238 | 1.0 | 2.0 | 0.00 | 0.00 | 0.00 | 86 | 1008.7 |
| 20260507065340 | 37 | 244 | 0.0 | 1.0 | 0.00 | 0.00 | 0.00 | 84 | 1008.6 |
| 20260507064837 | 37 | 262 | 1.0 | 2.0 | 0.00 | 0.00 | 0.00 | 83 | 1008.7 |
| 20260507064336 | 37 | 310 | 1.0 | 2.0 | 0.00 | 0.00 | 0.00 | 83 | 1008.6 |
| 20260507063833 | 37 | 273 | 1.0 | 2.0 | 0.00 | 0.00 | 0.00 | 82 | 1008.9 |
| 20260507063330 | 37 | 263 | 2.0 | 2.0 | 0.00 | 0.00 | 0.00 | 82 | 1009.0 |
| 20260507062826 | 37 | 247 | 2.0 | 2.0 | 0.00 | 0.00 | 0.00 | 82 | 1008.8 |
| 20260507062324 | 38 | 249 | 3.0 | 3.0 | 0.00 | 0.00 | 0.00 | 81 | 1009.1 |
| 20260507061822 | 38 | 301 | 2.0 | 3.0 | 0.00 | 0.00 | 0.00 | 81 | 1009.1 |
| 20260507061320 | 38 | 281 | 2.0 | 2.0 | 0.00 | 0.00 | 0.00 | 82 | 1009.0 |
| 20260507060818 | 38 | 256 | 1.0 | 2.0 | 0.00 | 0.00 | 0.00 | 82 | 1009.2 |
| 20260507060314 | 38 | 245 | 2.0 | 2.0 | 0.00 | 0.00 | 0.00 | 82 | 1009.1 |
| 20260507055811 | 38 | 217 | 1.0 | 5.0 | 0.00 | 0.00 | 0.00 | 81 | 1009.1 |
| 20260507055306 | 38 | 246 | 2.0 | 2.0 | 0.00 | 0.00 | 0.00 | 81 | 1009.2 |
| 20260507054803 | 38 | 246 | 2.0 | 2.0 | 0.00 | 0.00 | 0.00 | 80 | 1009.2 |
| 20260507054259 | 38 | 205 | 2.0 | 5.0 | 0.00 | 0.00 | 0.00 | 80 | 1009.0 |
| 20260507053756 | 39 | 218 | 2.0 | 5.0 | 0.00 | 0.00 | 0.00 | 78 | 1009.0 |
| 20260507053254 | 39 | 231 | 3.0 | 3.0 | 0.00 | 0.00 | 0.00 | 79 | 1009.3 |
| 20260507052753 | 38 | 211 | 1.0 | 2.0 | 0.00 | 0.00 | 0.00 | 79 | 1009.2 |
| 20260507052249 | 38 | 143 | 1.0 | 2.0 | 0.00 | 0.00 | 0.00 | 78 | 1009.1 |
| 20260507051747 | 38 | 111 | 0.0 | 1.0 | 0.00 | 0.00 | 0.00 | 78 | 1009.3 |
| 20260507051243 | 38 | 139 | 0.0 | 1.0 | 0.00 | 0.00 | 0.00 | 78 | 1009.2 |
| 20260507050740 | 38 | 149 | 1.0 | 1.0 | 0.00 | 0.00 | 0.00 | 77 | 1009.2 |
| 20260507050237 | 38 | 142 | 1.0 | 2.0 | 0.00 | 0.00 | 0.00 | 77 | 1009.1 |
| 20260507045734 | 38 | 163 | 2.0 | 2.0 | 0.00 | 0.00 | 0.00 | 77 | 1009.1 |
| 20260507045230 | 38 | 179 | 1.0 | 3.0 | 0.00 | 0.00 | 0.00 | 76 | 1009.3 |
| 20260507044728 | 38 | 197 | 2.0 | 2.0 | 0.00 | 0.00 | 0.00 | 76 | 1009.2 |
| 20260507044224 | 38 | 188 | 2.0 | 5.0 | 0.00 | 0.00 | 0.00 | 77 | 1009.3 |
| 20260507043720 | 38 | 176 | 1.0 | 2.0 | 0.00 | 0.00 | 0.00 | 79 | 1009.3 |
| 20260507043217 | 38 | 159 | 1.0 | 2.0 | 0.00 | 0.00 | 0.00 | 78 | 1009.2 |
| 20260507042714 | 38 | 156 | 1.0 | 1.0 | 0.00 | 0.00 | 0.00 | 78 | 1009.3 |
| 20260507042208 | 38 | 159 | 1.0 | 2.0 | 0.00 | 0.00 | 0.00 | 78 | 1009.4 |
| 20260507041706 | 38 | 138 | 1.0 | 1.0 | 0.00 | 0.00 | 0.00 | 78 | 1009.1 |
| 20260507041202 | 38 | 140 | 0.0 | 1.0 | 0.00 | 0.00 | 0.00 | 78 | 1009.4 |
| 20260507040700 | 38 | 164 | 1.0 | 2.0 | 0.00 | 0.00 | 0.00 | 77 | 1009.4 |
| 20260507040155 | 38 | 160 | 1.0 | 2.0 | 0.00 | 0.00 | 0.00 | 77 | 1009.3 |
| 20260507035652 | 38 | 146 | 2.0 | 2.0 | 0.00 | 0.00 | 0.00 | 77 | 1009.5 |
| 20260507035148 | 38 | 141 | 1.0 | 1.0 | 0.00 | 0.00 | 0.00 | 77 | 1009.3 |
| 20260507034645 | 38 | 166 | 1.0 | 3.0 | 0.00 | 0.00 | 0.00 | 76 | 1009.4 |
| 20260507034142 | 38 | 170 | 1.0 | 2.0 | 0.00 | 0.00 | 0.00 | 77 | 1009.7 |
| 20260507033641 | 38 | 154 | 1.0 | 2.0 | 0.00 | 0.00 | 0.00 | 77 | 1009.5 |
| 20260507033137 | 39 | 179 | 3.0 | 5.0 | 0.00 | 0.00 | 0.00 | 76 | 1009.5 |
| 20260507032635 | 39 | 198 | 4.0 | 8.0 | 0.00 | 0.00 | 0.00 | 76 | 1009.2 |
| 20260507032130 | 39 | 187 | 2.0 | 5.0 | 0.00 | 0.00 | 0.00 | 77 | 1009.4 |
| 20260507031628 | 39 | 192 | 2.0 | 7.0 | 0.00 | 0.00 | 0.00 | 77 | 1009.4 |
| 20260507031124 | 39 | 171 | 2.0 | 7.0 | 0.00 | 0.00 | 0.00 | 77 | 1009.4 |
| 20260507030621 | 39 | 196 | 2.0 | 5.0 | 0.00 | 0.00 | 0.00 | 77 | 1009.4 |
| 20260507030119 | 39 | 189 | 2.0 | 5.0 | 0.00 | 0.00 | 0.00 | 77 | 1009.5 |
| 20260507025616 | 39 | 183 | 2.0 | 6.0 | 0.00 | 0.00 | 0.00 | 77 | 1009.3 |
| 20260507025113 | 39 | 177 | 2.0 | 3.0 | 0.00 | 0.00 | 0.00 | 77 | 1009.3 |
| 20260507024611 | 39 | 187 | 2.0 | 3.0 | 0.00 | 0.00 | 0.00 | 77 | 1009.5 |
| 20260507024108 | 39 | 245 | 3.0 | 5.0 | 0.00 | 0.00 | 0.00 | 76 | 1009.5 |
| 20260507023603 | 39 | 196 | 1.0 | 2.0 | 0.00 | 0.00 | 0.00 | 77 | 1009.7 |
| 20260507023101 | 39 | 180 | 2.0 | 2.0 | 0.00 | 0.00 | 0.00 | 77 | 1009.4 |
| 20260507022557 | 39 | 192 | 1.0 | 2.0 | 0.00 | 0.00 | 0.00 | 77 | 1009.6 |
| 20260507022053 | 39 | 141 | 0.0 | 2.0 | 0.00 | 0.00 | 0.00 | 76 | 1009.3 |
| 20260507021549 | 39 | 204 | 3.0 | 3.0 | 0.00 | 0.00 | 0.00 | 77 | 1009.5 |
| 20260507021045 | 39 | 196 | 1.0 | 2.0 | 0.00 | 0.00 | 0.00 | 77 | 1009.4 |
| 20260507020544 | 39 | 158 | 1.0 | 1.0 | 0.00 | 0.00 | 0.00 | 77 | 1009.5 |
| 20260507020039 | 39 | 214 | 1.0 | 6.0 | 0.00 | 0.00 | 0.00 | 78 | 1009.5 |
| 20260507015538 | 39 | 219 | 2.0 | 6.0 | 0.00 | 0.00 | 0.00 | 77 | 1009.3 |
| 20260507015035 | 39 | 261 | 2.0 | 2.0 | 0.00 | 0.00 | 0.00 | 79 | 1009.2 |
| 20260507014532 | 39 | 200 | 2.0 | 3.0 | 0.00 | 0.00 | 0.00 | 77 | 1009.2 |
| 20260507014027 | 39 | 181 | 1.0 | 2.0 | 0.00 | 0.00 | 0.00 | 77 | 1009.2 |
| 20260507013524 | 39 | 193 | 1.0 | 3.0 | 0.00 | 0.00 | 0.00 | 77 | 1009.3 |
| 20260507013022 | 39 | 163 | 1.0 | 3.0 | 0.00 | 0.00 | 0.00 | 76 | 1009.0 |
| 20260507012519 | 39 | 162 | 1.0 | 2.0 | 0.00 | 0.00 | 0.00 | 78 | 1009.1 |
| 20260507012015 | 39 | 149 | 1.0 | 1.0 | 0.00 | 0.00 | 0.00 | 76 | 1009.1 |
| 20260507011512 | 39 | 150 | 1.0 | 2.0 | 0.00 | 0.00 | 0.00 | 76 | 1009.1 |
| 20260507011008 | 39 | 42 | 1.0 | 2.0 | 0.00 | 0.00 | 0.00 | 76 | 1009.1 |
| 20260507010502 | 40 | 30 | 2.0 | 2.0 | 0.00 | 0.00 | 0.00 | 77 | 1009.0 |
| 20260507010000 | 40 | 303 | 2.0 | 2.0 | 0.00 | 0.00 | 0.00 | 76 | 1009.1 |
| 20260507005457 | 40 | 32 | 1.0 | 2.0 | 0.00 | 0.00 | 0.00 | 78 | 1009.1 |
| 20260507004953 | 40 | 164 | 2.0 | 3.0 | 0.00 | 0.00 | 0.00 | 75 | 1009.0 |
| 20260507004450 | 40 | 155 | 3.0 | 6.0 | 0.00 | 0.00 | 0.00 | 75 | 1009.0 |
| 20260507003948 | 40 | 154 | 3.0 | 3.0 | 0.00 | 0.00 | 0.00 | 75 | 1009.0 |
| 20260507003443 | 40 | 129 | 3.0 | 3.0 | 0.00 | 0.00 | 0.00 | 76 | 1009.1 |
| 20260507002938 | 40 | 163 | 1.0 | 3.0 | 0.00 | 0.00 | 0.00 | 75 | 1008.8 |
| 20260507002435 | 40 | 227 | 1.0 | 2.0 | 0.00 | 0.00 | 0.00 | 75 | 1008.7 |
| 20260507001932 | 40 | 107 | 2.0 | 3.0 | 0.00 | 0.00 | 0.00 | 75 | 1008.8 |
| 20260507001428 | 40 | 145 | 2.0 | 5.0 | 0.00 | 0.00 | 0.00 | 74 | 1008.7 |
| 20260507000926 | 40 | 131 | 2.0 | 3.0 | 0.00 | 0.00 | 0.00 | 74 | 1008.8 |
| 20260507000421 | 40 | 145 | 1.0 | 1.0 | 0.00 | 0.00 | 0.00 | 74 | 1008.7 |
| 20260506235917 | 40 | 139 | 2.0 | 6.0 | 0.00 | 0.00 | 0.00 | 74 | 1008.5 |
| 20260506235415 | 40 | 117 | 3.0 | 3.0 | 0.00 | 0.00 | 0.00 | 74 | 1008.7 |
| 20260506234910 | 40 | 132 | 1.0 | 3.0 | 0.00 | 0.00 | 0.00 | 74 | 1008.6 |
| 20260506234408 | 40 | 117 | 3.0 | 5.0 | 0.00 | 0.00 | 0.00 | 74 | 1008.5 |
| 20260506233906 | 40 | 136 | 6.0 | 8.0 | 0.00 | 0.00 | 0.00 | 73 | 1008.3 |
| 20260506233401 | 40 | 201 | 5.0 | 6.0 | 0.00 | 0.00 | 0.00 | 74 | 1008.6 |
| 20260506232858 | 40 | 162 | 3.0 | 3.0 | 0.00 | 0.00 | 0.00 | 73 | 1008.6 |
| 20260506232354 | 40 | 148 | 3.0 | 6.0 | 0.00 | 0.00 | 0.00 | 73 | 1008.5 |
| 20260506231850 | 40 | 132 | 3.0 | 7.0 | 0.00 | 0.00 | 0.00 | 73 | 1008.6 |
| 20260506231348 | 41 | 179 | 3.0 | 3.0 | 0.00 | 0.00 | 0.00 | 74 | 1008.5 |
| 20260506230846 | 40 | 165 | 3.0 | 7.0 | 0.00 | 0.00 | 0.00 | 74 | 1008.5 |
| 20260506230342 | 40 | 184 | 4.0 | 6.0 | 0.00 | 0.00 | 0.00 | 73 | 1008.5 |
| 20260506225838 | 41 | 154 | 3.0 | 6.0 | 0.00 | 0.00 | 0.00 | 73 | 1008.7 |
| 20260506225336 | 41 | 128 | 2.0 | 6.0 | 0.00 | 0.00 | 0.00 | 73 | 1008.5 |
| 20260506224833 | 41 | 164 | 3.0 | 6.0 | 0.00 | 0.00 | 0.00 | 73 | 1008.6 |
| 20260506224330 | 41 | 167 | 5.0 | 8.0 | 0.00 | 0.00 | 0.00 | 72 | 1008.5 |
| 20260506223826 | 41 | 156 | 3.0 | 5.0 | 0.00 | 0.00 | 0.00 | 72 | 1008.7 |
| 20260506223321 | 41 | 184 | 6.0 | 7.0 | 0.00 | 0.00 | 0.00 | 72 | 1008.4 |
| 20260506222819 | 41 | 133 | 3.0 | 7.0 | 0.00 | 0.00 | 0.00 | 73 | 1008.4 |
| 20260506222314 | 41 | 124 | 6.0 | 7.0 | 0.00 | 0.00 | 0.00 | 73 | 1008.4 |
| 20260506221812 | 41 | 147 | 4.0 | 5.0 | 0.00 | 0.00 | 0.00 | 73 | 1008.3 |
| 20260506221310 | 40 | 125 | 6.0 | 9.0 | 0.00 | 0.00 | 0.00 | 73 | 1008.4 |
| 20260506220807 | 40 | 126 | 4.0 | 10.0 | 0.00 | 0.00 | 0.00 | 74 | 1008.5 |
| 20260506220302 | 40 | 130 | 4.0 | 5.0 | 0.00 | 0.00 | 0.00 | 74 | 1008.7 |
| 20260506215759 | 40 | 150 | 3.0 | 3.0 | 0.00 | 0.00 | 0.00 | 74 | 1008.4 |
| 20260506215255 | 40 | 165 | 5.0 | 7.0 | 0.00 | 0.00 | 0.00 | 74 | 1008.5 |
| 20260506214750 | 41 | 179 | 6.0 | 9.0 | 0.00 | 0.00 | 0.00 | 74 | 1008.4 |
| 20260506214248 | 41 | 108 | 6.0 | 8.0 | 0.00 | 0.00 | 0.00 | 73 | 1008.3 |
| 20260506213746 | 41 | 169 | 7.0 | 9.0 | 0.00 | 0.00 | 0.00 | 73 | 1008.2 |